CZ-4 DEB

Satellite information

Favourite Embed

Satellite Type and Status

DEBRISIN ORBIT

Key statistics

Satellite CZ-4 DEB at a glance.

Uptime

12727

Days in orbit

Revolutions

≈ 13.7

Per day

Orbit

SSO

Sun Synchronous Orbit

Inclination

98.9

Latest

Satellite identification and parameters

Extended collection of information and parameters for CZ-4 DEB.

Object identification

Identified? True

Debris? True

Object name: CZ-4 DEB

International designator: 1990-081DN

Object number (NORAD): 37626

Object ID (CCSDS): 37626

Country: PEOPLES REPUBLIC OF CHINA (PRC)

Current information (Y/N): Y

RCS size: SMALL

Orbital parameters

Period: 104.947 minutes

Inclination: 98.9002 deg

SMA: 7370.111 km

Apoapsis: 1110.88 km

Periapsis: 873.071 km

RAAN: 154.2318 deg

Eccentricy: 0.0161333

Argument of periapsis: 222.8543 deg

Mean anomaly: 262.2544 deg

Mean motion: 13.7211894 rev/day

Mean motion (dot): 0.00000108 rev/day2

B* drag term: 0.00014878 1/REarth

Two-line elements (TLE)

Creation date: July 8, 2025, 2:27 a.m.

Reference frame: TEME

Reference center: EARTH

Epoch: July 7, 2025, 5:19 p.m. UTC

TLE line 0: 0 CZ-4 DEB

TLE line 1: 1 37626U 90081DN 25188.72191065 .00000108 00000-0 14878-3 0 9997

TLE line 2: 2 37626 98.9002 154.2318 0161333 222.8543 262.2544 13.72118940 94049

Live tracking on map

Real-time ground track for satellite CZ-4 DEB.

In-orbit conjunctions

A list of the most updated potential collisions computed for object CZ-4 DEB.

Target Orbit TCA Probability of collision Miss distance Type
SL-8 R/B LEO 2024-10-28 10:15:37 0.0001057484 479.0 (m) ROCKET BODY
COSMOS 2361 LEO 2024-08-15 15:34:38 0.0004772378 127.0 (m) PAYLOAD

Associated space launch

Chinese polar orbiting meteorological satellite

CZ-4 DEB was lifted into orbit during the mission ‘Long March 4A | Feng Yun 1B’, on board a Long March 4A space rocket.

The launch took place on Sept. 3, 1990, 12:53 a.m. from Launch Complex 7.

For more information about the launch, click the button.

Launch to space Long March 4A | Feng Yun 1B
Long March 4A | Feng Yun 1B

Agency: N/A

Status: Launch Successful

Launch date: Sept. 3, 1990, 12:53 a.m. UTC

Rocket: Long March 4A

Launch pad: Launch Complex 7

Location: Taiyuan Satellite Launch Center, People's Republic of China

...

Latest news about this satellite

There are no fresh news available about this satellite. Check back as we update our databases every day.


Newsletter sign-up

Weekly statistics, charts and insights to help you stay on top of the space industry.